White Mountain, AK

9:55 AM AKDT on May 26, 2018 (GMT -0800)
White Mountain

Weather History for PAWM - June, 2013

Change the Weather History Date:

Thursday, June 13, 2013

  Actual Average (PAOM) Record (PAOM)
Temperature  
Mean Temperature 66 °F -  
Max Temperature 77 °F 53 °F 77 °F (1986)
Min Temperature 57 °F 38 °F 28 °F (1999)
Cooling Degree Days 1    
Growing Degree Days 16 (Base 50)    
Moisture  
Dew Point 60 °F    
Average Humidity 74    
Maximum Humidity 100    
Minimum Humidity 52    
Precipitation  
Precipitation 0.00 in - - ()
Sea Level Pressure  
Sea Level Pressure 30.04 in    
Wind  
Wind Speed 9 mph (ESE)    
Max Wind Speed 17 mph    
Max Gust Speed 23 mph    
Visibility 10 miles    
Events      
Averages and records for this station are not official NWS values.
T = Trace of Precipitation, MM = Missing Value Source: NWS Daily Summary

Daily Weather History Graph

Daily Weather History Graph

Search for Another Location

Airport or City:

Astronomy

Jun. 13, 2013 Rise Set
Actual Time 4:10 AM AKDT 1:38 AM AKDT
Civil Twilight Sun does not set Sun does not set
Nautical Twilight Sun does not set Sun does not set
Astronomical Twilight Sun does not set Sun does not set
Moon 11:16 AM AKDT (6/13) 2:08 AM AKDT (6/13)
Length of Visible Light 24h 00m
Length of Day
21h 28m
Waxing Crescent, 23% of the Moon is Illuminated
Jun 13
Waxing Crescent
Jun 16
First Quarter
Jun 23
Full
Jun 29
Last Quarter
Jul 7
New

Hourly Weather History & Observations

Time (AKDT) Temp. Dew Point Humidity Pressure Visibility Wind Dir Wind Speed Gust Speed Precip Events Conditions
12:58 AM 64.0 °F 46.9 °F 54% 30.02 in 10.0 mi NNE 8.1 mph - N/A   Clear
1:58 AM 63.0 °F 45.0 °F 52% 30.03 in 10.0 mi NNE 6.9 mph - N/A   Clear
2:58 AM 63.0 °F 45.0 °F 52% 30.03 in 10.0 mi NNE 4.6 mph - N/A   Scattered Clouds
3:58 AM 57.9 °F 41.0 °F 53% 30.04 in 10.0 mi North 8.1 mph - N/A   Partly Cloudy
4:58 AM 57.0 °F 41.0 °F 55% 30.04 in 10.0 mi North 8.1 mph - N/A   Partly Cloudy
5:58 AM 57.0 °F 41.0 °F 55% 30.04 in 10.0 mi North 8.1 mph - N/A   Clear
6:58 AM 59.0 °F 42.1 °F 53% 30.04 in 10.0 mi NNE 4.6 mph - N/A   Clear
7:58 AM 62.1 °F 48.9 °F 62% 30.04 in 10.0 mi NNE 3.5 mph - N/A   Clear
8:58 AM 66.9 °F 57.0 °F 70% 30.04 in 10.0 mi East 4.6 mph - N/A   Clear
9:58 AM 71.1 °F 62.1 °F 73% 30.05 in 9.0 mi ESE 9.2 mph - N/A   Clear
10:58 AM 71.1 °F 63.0 °F 75% 30.05 in 8.0 mi ESE 11.5 mph - N/A   Clear
11:58 AM 73.0 °F 66.9 °F 81% 30.05 in 10.0 mi SE 15.0 mph 19.6 mph N/A   Clear
12:58 PM 73.0 °F 68.0 °F 84% 30.05 in 10.0 mi SSE 16.1 mph 21.9 mph N/A   Clear
1:58 PM 73.0 °F 69.1 °F 87% 30.05 in 9.0 mi SSE 17.3 mph 23.0 mph N/A   Clear
2:58 PM 73.9 °F 71.1 °F 91% 30.05 in 9.0 mi SSE 16.1 mph 20.7 mph N/A   Clear
3:58 PM 75.0 °F 72.0 °F 90% 30.05 in 9.0 mi SSE 16.1 mph 21.9 mph N/A   Clear
4:58 PM 75.9 °F 73.0 °F 91% 30.05 in 9.0 mi SE 10.4 mph - N/A   Clear
5:58 PM 75.9 °F 75.9 °F 100% 30.04 in 10.0 mi SSE 10.4 mph - N/A   Clear
6:58 PM 75.9 °F 75.9 °F 100% 30.03 in 9.0 mi SSE 10.4 mph - N/A   Clear
7:58 PM 75.9 °F 71.1 °F 85% 30.03 in 10.0 mi SSE 6.9 mph - N/A   Clear
8:58 PM 75.0 °F 64.0 °F 69% 30.04 in 10.0 mi SSE 9.2 mph - N/A   Clear
9:58 PM 73.0 °F 63.0 °F 71% 30.04 in 10.0 mi South 8.1 mph - N/A   Clear
10:58 PM 69.1 °F 66.9 °F 93% 30.05 in 9.0 mi South 3.5 mph - N/A   Clear
11:58 PM 66.0 °F 60.1 °F 81% 30.06 in 10.0 mi WSW 5.8 mph - N/A   Partly Cloudy